Location: ROBOsky.com Wild Flower Ridge Observatory
(43.9736°N, 79.9739°W)
Time: 07:02:34
(UTC-04:00)

USA 129 - Visible Passes

Search period start: 25 May 2016 00:00
Search period end: 04 June 2016 00:00
Orbit: 241 x 674 km, 97.5° (Epoch: 24 April)

Date Brightness Start Highest point End Pass type
(mag) Time Alt. Az. Time Alt. Az. Time Alt. Az.
26 May 3.1 04:27:56 14° NW 04:27:56 14° NW 04:28:15 10° NNW visible
27 May 4.7 03:50:46 10° ENE 03:50:46 10° ENE 03:50:49 10° ENE visible
28 May 3.0 04:41:11 13° WNW 04:41:11 13° WNW 04:41:32 10° NW visible
29 May 3.3 04:03:47 21° ENE 04:03:47 21° ENE 04:04:52 10° NNE visible
31 May 1.4 04:16:19 48° E 04:16:26 50° ENE 04:17:53 10° N visible
02 Jun 0.7 04:28:21 40° SSW 04:28:43 61° W 04:30:16 10° NNW visible
03 Jun 4.5 03:50:47 10° E 03:51:24 12° ENE 03:52:04 10° NE visible
